Tracking 25709 objects as of 23-May-2022
HD Live streaming from Space Station
objects crossing your sky now

SPACEBEE-36

Track SPACEBEE-36 now!
10-day predictions


NORAD ID: 46935
Int'l Code: 2020-085G
Perigee: 443.6 km
Apogee: 458.3 km
Inclination: 97.4 °
Period: 93.5 minutes
Semi major axis: 6821 km
RCS: Unknown
Launch date: November 20, 2020
Source: United States (US)
Launch site: Rocket Lab Launch Complex (RLLC)
aabbcc
Your satellite tracking list
Your tracking list is empty




NASA's NSSDC Master Catalog

Two Line Element Set (TLE):
1 46935U 20085G   22143.36664274  .00109282  00000-0  26333-2 0  9993
2 46935  97.4280 283.5169 0010770 176.2900 183.8439 15.40773245 83761
Source of the keplerian elements: AFSPC